Indianapolis, IN

7:31 PM EDT on July 19, 2019 (GMT -0400)
Indianapolis International

Weather History for KIND - May, 2019

Change the Weather History Date:

Wednesday, May 8, 2019

  Actual Average Record
Temperature  
Mean Temperature 66 °F 60 °F  
Max Temperature 81 °F 70 °F 90 °F (1896)
Min Temperature 51 °F 50 °F 31 °F (1976)
Degree Days  
Heating Degree Days 0 6  
Month to date heating degree days 29 54  
Since 1 July heating degree days 5280 5276  
Cooling Degree Days 1 1  
Month to date cooling degree days 3 8  
Year to date cooling degree days 4 23  
Growing Degree Days 16 (Base 50)    
Moisture  
Dew Point 52 °F    
Average Humidity 61    
Maximum Humidity 77    
Minimum Humidity 45    
Precipitation  
Precipitation 0.00 in 0.16 in 2.34 in (1961)
Month to date precipitation 0.77 1.27  
Year to date precipitation 18.25 13.62  
Snow  
Snow 0.00 in 0.00 in 0.30 in (1923)
Month to date snowfall 0.0 0.0  
Since 1 July snowfall 19.4 25.9  
Snow Depth 0.00 in    
Sea Level Pressure  
Sea Level Pressure 29.99 in    
Wind  
Wind Speed 13 mph (ESE)    
Max Wind Speed 22 mph    
Max Gust Speed 29 mph    
Visibility 10 miles    
Events      
T = Trace of Precipitation, MM = Missing Value Source: NWS Daily Summary

Daily Weather History Graph

Daily Weather History Graph

Search for Another Location

Airport or City:

Astronomy

May. 08, 2019 Rise Set
Actual Time 6:37 AM EDT 8:46 PM EDT
Civil Twilight 6:08 AM EDT 9:15 PM EDT
Nautical Twilight 5:31 AM EDT 9:52 PM EDT
Astronomical Twilight 4:51 AM EDT 10:32 PM EDT
Moon 9:34 AM EDT (5/8) No Moon Set
Length of Visible Light 15h 07m
Length of Day
14h 08m
Waxing Crescent, 15% of the Moon is Illuminated
May 8
Waxing Crescent
May 11
First Quarter
May 18
Full
May 26
Last Quarter
Jun 3
New

Hourly Weather History & Observations

Time (EDT) Temp. Heat Index Dew Point Humidity Pressure Visibility Wind Dir Wind Speed Gust Speed Precip Events Conditions
12:54 AM 57.9 °F - 48.9 °F 72% 30.12 in 10.0 mi ENE 15.0 mph - N/A   Mostly Cloudy
1:54 AM 55.9 °F - 48.0 °F 75% 30.11 in 10.0 mi ENE 11.5 mph - N/A   Scattered Clouds
2:54 AM 55.0 °F - 48.0 °F 77% 30.10 in 10.0 mi NE 8.1 mph - N/A   Scattered Clouds
3:54 AM 54.0 °F - 46.0 °F 75% 30.11 in 10.0 mi NE 10.4 mph - N/A   Scattered Clouds
4:54 AM 53.1 °F - 45.0 °F 74% 30.10 in 10.0 mi ENE 9.2 mph - N/A   Scattered Clouds
5:54 AM 52.0 °F - 44.1 °F 74% 30.11 in 10.0 mi ENE 13.8 mph - N/A   Scattered Clouds
6:54 AM 51.1 °F - 43.0 °F 74% 30.09 in 10.0 mi ENE 13.8 mph - N/A   Mostly Cloudy
7:54 AM 52.0 °F - 43.0 °F 71% 30.10 in 10.0 mi East 13.8 mph - N/A   Mostly Cloudy
8:54 AM 55.0 °F - 45.0 °F 69% 30.09 in 10.0 mi East 12.7 mph - N/A   Scattered Clouds
9:54 AM 59.0 °F - 48.0 °F 67% 30.08 in 10.0 mi East 11.5 mph - N/A   Scattered Clouds
10:54 AM 63.0 °F - 51.1 °F 65% 30.07 in 10.0 mi ESE 11.5 mph - N/A   Partly Cloudy
11:54 AM 66.9 °F - 53.1 °F 61% 30.04 in 10.0 mi ESE 13.8 mph - N/A   Mostly Cloudy
12:54 PM 72.0 °F - 57.0 °F 59% 30.00 in 10.0 mi SE 11.5 mph - N/A   Mostly Cloudy
2:54 PM 78.1 °F - 57.9 °F 50% 29.94 in 10.0 mi SE 17.3 mph - N/A   Scattered Clouds
3:54 PM 80.1 °F 80.6 °F 57.9 °F 47% 29.91 in 10.0 mi SE 19.6 mph 26.5 mph N/A   Scattered Clouds
4:54 PM 79.0 °F - 57.9 °F 48% 29.88 in 10.0 mi SE 13.8 mph 26.5 mph N/A   Mostly Cloudy
5:54 PM 81.0 °F 81.1 °F 57.9 °F 45% 29.86 in 10.0 mi SE 13.8 mph - N/A   Mostly Cloudy
6:54 PM 80.1 °F 80.4 °F 57.0 °F 45% 29.85 in 10.0 mi SSE 16.1 mph 25.3 mph N/A   Mostly Cloudy
7:54 PM 79.0 °F - 57.9 °F 48% 29.83 in 10.0 mi SSE 16.1 mph - N/A   Scattered Clouds
8:54 PM 75.9 °F - 59.0 °F 56% 29.83 in 10.0 mi SE 11.5 mph - N/A   Scattered Clouds
9:54 PM 75.0 °F - 60.1 °F 60% 29.85 in 10.0 mi SSE 11.5 mph - N/A   Mostly Cloudy
10:54 PM 73.0 °F - 60.1 °F 64% 29.85 in 10.0 mi SSE 9.2 mph - N/A   Mostly Cloudy
11:54 PM 72.0 °F - 61.0 °F 68% 29.82 in 10.0 mi SE 10.4 mph - N/A   Mostly Cloudy